Location: Greenwich
(51.4790°N, 0.0090°E)
Time: 16:42:27
(UTC+01:00)

Vanguard 2 Rocket - All Passes

Search period start: 23 June 2025 00:00
Search period end: 03 July 2025 00:00
Orbit: 555 x 3292 km, 32.9° (Epoch: 23 June)

Date Brightness Start Highest point End Pass type
(mag) Time Alt. Az. Time Alt. Az. Time Alt. Az.
23 Jun - 14:51:10 10° SSW 14:56:05 19° SSE 15:02:53 10° ESE daylight
23 Jun - 17:01:04 10° SW 17:08:14 27° S 17:18:56 10° SE daylight
23 Jun - 19:13:32 10° WSW 19:21:33 21° SSW 19:32:15 10° SSE daylight
24 Jun - 13:49:52 10° S 13:52:40 13° SSE 13:56:00 10° SE daylight
24 Jun - 15:58:10 10° SW 16:04:09 24° S 16:12:56 10° SE daylight
24 Jun - 18:09:34 10° WSW 18:16:57 23° SSW 18:27:20 10° SSE daylight
24 Jun - 20:25:42 10° SW 20:30:25 12° SSW 20:35:45 10° SSW daylight
25 Jun - 14:55:42 10° SSW 15:00:23 19° SSE 15:06:52 10° ESE daylight
25 Jun - 17:06:08 10° SW 17:12:37 23° S 17:21:56 10° SE daylight
25 Jun - 19:19:43 10° SW 19:25:47 15° SSW 19:33:19 10° S daylight
26 Jun - 13:53:55 10° S 13:56:55 14° SSE 14:00:35 10° SE daylight
26 Jun - 16:03:06 10° SW 16:08:34 22° S 16:16:20 10° SE daylight
26 Jun - 18:15:14 10° SW 18:21:18 18° SSW 18:29:18 10° SSE daylight
27 Jun - 15:00:28 10° SSW 15:04:47 18° S 15:10:39 10° SE daylight
27 Jun - 17:11:31 10° SW 17:17:02 19° S 17:24:32 10° SSE daylight
28 Jun - 13:58:23 10° SSW 14:01:16 14° SSE 14:04:50 10° SE daylight
28 Jun - 16:08:18 10° SW 16:13:01 18° S 16:19:25 10° SE daylight
28 Jun - 18:22:06 10° SW 18:25:42 12° SSW 18:29:54 10° S daylight
29 Jun - 15:05:30 10° SSW 15:09:16 16° S 15:14:09 10° SE daylight
29 Jun - 17:17:37 10° SW 17:21:31 14° SSW 17:26:18 10° SSE daylight
30 Jun - 14:03:11 10° SSW 14:05:44 13° S 14:08:44 10° SE daylight
30 Jun - 16:14:01 10° SW 16:17:33 14° S 16:21:55 10° SSE daylight
01 Jul - 15:10:59 10° SSW 15:13:47 13° S 15:17:11 10° SSE daylight
02 Jul - 14:08:31 10° SSW 14:10:14 11° S 14:12:08 10° SSE daylight
